GW5996 Weather Reports


Display with metric or nautical units.
time (UTC)temp
F
wind
direction
speed
MPH
gust
MPH
rain 1hr
in
rain 24hr
in
rain mn
in
humidity
%
barometer
mb
20260507185324 54 216 8.0 13.0 0.00 0.32 0.32 99 1000.5
20260507184822 54 214 5.0 10.0 0.00 0.32 0.32 99 1000.4
20260507184320 54 186 9.0 13.0 0.00 0.32 0.32 99 1000.7
20260507183816 54 203 10.0 15.0 0.00 0.32 0.32 99 1000.7
20260507183313 54 170 9.0 16.0 0.00 0.32 0.32 99 1000.6
20260507182811 54 183 14.0 15.0 0.00 0.32 0.32 99 1000.1
20260507182307 53 175 14.0 16.0 0.00 0.32 0.32 99 1000.3
20260507181802 53 171 10.0 16.0 0.00 0.32 0.32 99 999.7
20260507181259 53 147 9.0 16.0 0.00 0.32 0.32 99 999.5
20260507180755 53 166 13.0 18.0 0.00 0.32 0.32 99 1000.7
20260507180253 53 170 14.0 15.0 0.05 0.32 0.32 99 1000.4
20260507175748 53 179 11.0 16.0 0.05 0.32 0.32 99 1001.1
20260507175245 53 196 10.0 16.0 0.00 0.31 0.31 99 1001.7
20260507174742 53 174 17.0 22.0 0.00 0.31 0.31 99 1001.3
20260507174240 53 175 12.0 19.0 0.02 0.31 0.31 99 1000.8
20260507173738 53 175 16.0 22.0 0.02 0.31 0.31 99 1000.8
20260507173234 53 165 12.0 18.0 0.02 0.31 0.31 99 1000.2
20260507172731 53 163 9.0 18.0 0.05 0.31 0.31 99 1000.0
20260507172228 53 151 13.0 18.0 0.07 0.30 0.30 99 1000.5
20260507171728 53 171 13.0 16.0 0.05 0.29 0.29 99 1001.0
20260507171226 53 172 10.0 20.0 0.05 0.29 0.29 99 1000.8
20260507170722 53 170 13.0 16.0 0.02 0.28 0.28 99 1000.9
20260507170219 53 184 13.0 18.0 0.00 0.28 0.28 99 1001.5
20260507165715 54 168 14.0 18.0 0.02 0.28 0.28 98 1001.3
20260507165211 54 178 14.0 18.0 0.02 0.28 0.28 98 1001.7
20260507164707 54 173 15.0 20.0 0.00 0.28 0.28 98 1001.5
20260507164205 54 189 16.0 18.0 0.00 0.28 0.28 98 1001.1
20260507163701 54 171 10.0 17.0 0.07 0.28 0.28 98 1000.9
20260507163159 54 176 14.0 17.0 0.14 0.27 0.27 98 1001.2
20260507162655 54 170 18.0 18.0 0.17 0.26 0.26 98 1001.3
20260507162151 54 196 8.0 14.0 0.14 0.25 0.25 98 1001.9
20260507161648 54 174 10.0 19.0 0.14 0.24 0.24 98 1002.0
20260507161144 54 166 13.0 16.0 0.12 0.22 0.22 98 1001.9
20260507160641 54 166 13.0 16.0 0.07 0.21 0.21 98 1002.1
20260507160138 54 166 15.0 17.0 0.05 0.20 0.20 98 1001.6
20260507155633 54 193 7.0 15.0 0.05 0.20 0.20 98 1001.8
20260507155130 54 190 12.0 16.0 0.05 0.19 0.19 98 1001.8
20260507154626 54 186 11.0 16.0 0.05 0.19 0.19 98 1001.9
20260507154124 54 192 12.0 17.0 0.05 0.18 0.18 98 1002.4
20260507153620 54 196 9.0 14.0 0.07 0.18 0.18 98 1002.5
20260507153117 54 194 11.0 20.0 0.12 0.18 0.18 97 1003.0
20260507152613 53 198 9.0 21.0 0.14 0.17 0.17 97 1003.3
20260507152109 53 221 9.0 17.0 0.21 0.16 0.16 97 1003.1
20260507151605 53 209 12.0 17.0 0.24 0.14 0.14 97 1003.4
20260507151103 53 207 7.0 17.0 0.28 0.12 0.12 96 1003.0
20260507150600 53 194 7.0 19.0 0.35 0.10 0.10 95 1003.5
20260507150056 54 216 12.0 17.0 0.24 0.06 0.06 94 1003.4
20260507145551 54 223 11.0 16.0 0.14 0.03 0.03 93 1003.0
20260507145050 55 212 9.0 17.0 0.07 0.02 0.02 91 1002.8
20260507144546 56 202 14.0 16.0 0.00 0.01 0.01 90 1002.7
20260507144044 57 208 7.0 16.0 0.00 0.01 0.01 89 1002.9
20260507143540 57 213 15.0 20.0 0.00 0.01 0.01 89 1002.8
20260507143038 57 201 20.0 20.0 0.00 0.01 0.01 89 1003.1
20260507142533 57 201 13.0 15.0 0.00 0.01 0.01 89 1002.7
20260507142030 57 196 10.0 17.0 0.00 0.01 0.01 89 1002.9
20260507141526 57 203 10.0 15.0 0.00 0.01 0.01 88 1002.9
20260507141023 57 195 11.0 19.0 0.00 0.01 0.01 88 1002.7
20260507140520 58 177 18.0 24.0 0.00 0.01 0.01 88 1002.4
20260507140018 57 181 14.0 22.0 0.00 0.01 0.01 89 1002.3
20260507135514 57 168 23.0 24.0 0.00 0.01 0.01 89 1002.4
20260507135011 57 183 15.0 24.0 0.00 0.01 0.01 89 1002.3
20260507134508 57 174 17.0 23.0 0.00 0.01 0.01 89 1002.7
20260507134003 57 175 11.0 25.0 0.00 0.01 0.01 89 1002.5
20260507133459 57 177 14.0 26.0 0.00 0.01 0.01 89 1002.8
20260507132958 57 175 18.0 29.0 0.00 0.01 0.01 89 1003.0
20260507132454 57 183 24.0 30.0 0.00 0.01 0.01 89 1002.9
20260507131951 57 173 23.0 31.0 0.00 0.01 0.01 89 1003.1
20260507131448 57 183 19.0 30.0 0.00 0.01 0.01 90 1002.8
20260507130944 57 176 22.0 27.0 0.00 0.01 0.01 90 1003.0
20260507130441 56 179 18.0 25.0 0.00 0.01 0.01 89 1003.3
20260507125940 56 184 19.0 28.0 0.00 0.01 0.01 89 1003.4
20260507125438 57 180 22.0 28.0 0.00 0.01 0.01 89 1003.0
20260507124935 57 187 19.0 27.0 0.00 0.01 0.01 89 1003.4
20260507124431 57 195 22.0 32.0 0.00 0.01 0.01 89 1003.4
20260507123930 56 181 20.0 29.0 0.00 0.01 0.01 90 1003.5
20260507123427 56 181 23.0 26.0 0.00 0.01 0.01 89 1003.6
20260507122923 56 176 17.0 30.0 0.00 0.01 0.01 89 1003.3
20260507122418 56 166 22.0 27.0 0.00 0.01 0.01 90 1003.2
20260507121915 56 203 24.0 32.0 0.00 0.01 0.01 90 1003.5
20260507121410 56 187 16.0 33.0 0.00 0.01 0.01 90 1003.3
20260507120907 56 192 19.0 31.0 0.00 0.01 0.01 90 1003.5
20260507120403 56 185 18.0 28.0 0.00 0.01 0.01 90 1003.4
20260507115900 56 175 20.0 78.0 0.00 0.01 0.01 90 1003.5
20260507115356 55 198 15.0 22.0 0.00 0.01 0.01 90 1003.5
20260507114851 55 180 18.0 23.0 0.00 0.01 0.01 89 1003.6
20260507114349 55 189 10.0 23.0 0.00 0.01 0.01 89 1003.7
20260507113846 55 188 17.0 25.0 0.00 0.01 0.01 89 1003.5
20260507113343 55 189 18.0 22.0 0.00 0.01 0.01 89 1004.0
20260507112840 55 176 22.0 27.0 0.00 0.01 0.01 89 1003.9
20260507112337 55 190 17.0 30.0 0.00 0.01 0.01 89 1003.7
20260507111836 55 181 12.0 26.0 0.00 0.01 0.01 88 1003.7
20260507111332 55 165 16.0 28.0 0.00 0.01 0.01 88 1003.6
20260507110828 55 175 17.0 25.0 0.00 0.01 0.01 88 1003.8
20260507110324 55 167 18.0 28.0 0.00 0.01 0.01 87 1004.0
20260507105821 55 184 17.0 30.0 0.00 0.01 0.01 87 1003.9
20260507105318 55 168 16.0 28.0 0.00 0.01 0.01 87 1003.8
20260507104815 55 180 25.0 26.0 0.00 0.01 0.01 87 1004.0
20260507104311 55 183 15.0 26.0 0.00 0.01 0.01 87 1004.1
20260507103807 55 329 12.0 31.0 0.00 0.01 0.01 85 1004.2
20260507103303 55 176 30.0 36.0 0.00 0.01 0.01 84 1004.3
20260507102800 55 184 24.0 36.0 0.00 0.01 0.01 83 1004.3
20260507102257 56 176 26.0 27.0 0.00 0.01 0.01 83 1004.5
20260507101754 56 178 20.0 31.0 0.00 0.01 0.01 82 1004.3
20260507101253 55 177 25.0 28.0 0.00 0.01 0.01 83 1004.8
20260507100751 55 178 27.0 27.0 0.00 0.01 0.01 84 1004.6
20260507100249 55 184 17.0 20.0 0.00 0.01 0.01 84 1004.8
20260507095747 54 203 20.0 27.0 0.00 0.01 0.01 84 1004.8
20260507095243 54 172 14.0 29.0 0.00 0.01 0.01 83 1004.6
20260507094740 54 182 16.0 28.0 0.00 0.01 0.01 83 1004.6
20260507094237 54 161 15.0 28.0 0.00 0.01 0.01 83 1004.7
20260507093734 54 164 27.0 28.0 0.00 0.01 0.01 83 1004.6
20260507093232 54 160 21.0 25.0 0.00 0.01 0.01 82 1004.8
20260507092730 54 165 12.0 26.0 0.00 0.01 0.01 81 1004.8
20260507092226 55 165 17.0 28.0 0.00 0.01 0.01 81 1004.9
20260507091722 55 168 21.0 27.0 0.00 0.01 0.01 81 1004.8
20260507091219 55 172 20.0 32.0 0.00 0.01 0.01 80 1005.0
20260507090719 55 170 18.0 27.0 0.00 0.01 0.01 80 1004.9
20260507090216 55 167 20.0 26.0 0.00 0.01 0.01 80 1005.0
20260507085713 54 170 18.0 25.0 0.00 0.01 0.01 81 1005.0
20260507085210 54 163 24.0 25.0 0.00 0.01 0.01 80 1005.2
20260507084707 54 150 18.0 30.0 0.00 0.01 0.01 80 1005.0
20260507084203 54 152 15.0 27.0 0.00 0.01 0.01 80 1005.1
20260507083701 54 157 14.0 27.0 0.00 0.01 0.01 79 1005.5
20260507083157 54 166 22.0 26.0 0.00 0.01 0.01 80 1005.2
20260507082653 54 157 16.0 25.0 0.00 0.01 0.01 80 1005.8
20260507082149 54 160 22.0 28.0 0.00 0.01 0.01 81 1006.0
20260507081647 54 159 14.0 17.0 0.00 0.01 0.01 80 1006.0
20260507081143 54 161 14.0 18.0 0.00 0.01 0.01 80 1006.1
20260507080639 55 165 13.0 20.0 0.00 0.01 0.01 80 1006.3
20260507080136 55 173 13.0 21.0 0.00 0.01 0.01 79 1006.6
20260507075631 54 172 17.0 18.0 0.00 0.01 0.01 80 1006.6
20260507075127 54 164 14.0 18.0 0.00 0.01 0.01 81 1006.8
20260507074624 54 156 15.0 17.0 0.00 0.01 0.01 80 1006.7
20260507074123 54 179 13.0 22.0 0.00 0.01 0.01 81 1006.8
20260507073618 54 161 16.0 17.0 0.00 0.01 0.01 82 1007.0
20260507073115 54 160 12.0 17.0 0.00 0.01 0.01 82 1007.2
20260507072613 54 164 16.0 18.0 0.00 0.01 0.01 83 1007.6
20260507072109 54 168 9.0 19.0 0.00 0.01 0.01 83 1007.5
20260507071607 54 169 13.0 17.0 0.00 0.01 0.01 83 1007.6
20260507071103 54 152 10.0 16.0 0.00 0.01 0.01 84 1007.4
20260507070600 54 162 13.0 19.0 0.00 0.01 0.01 83 1007.4
20260507070057 54 156 17.0 20.0 0.00 0.01 0.01 83 1007.4
20260507065554 54 160 11.0 21.0 0.02 0.01 0.01 84 1007.5
20260507065051 54 161 23.0 26.0 0.05 0.01 0.01 83 1007.2
20260507064549 55 165 22.0 34.0 0.02 0.00 0.00 81 1008.2
20260507064047 55 180 16.0 27.0 0.00 0.00 0.00 79 1008.3
20260507063544 55 173 21.0 26.0 0.00 0.00 0.00 77 1008.5
20260507063041 55 180 20.0 26.0 0.00 0.00 0.00 77 1008.5
20260507062538 56 170 15.0 23.0 0.00 0.00 0.00 77 1008.2
20260507062035 56 162 16.0 24.0 0.00 0.00 0.00 76 1008.4
20260507061533 56 179 18.0 26.0 0.00 0.00 0.00 76 1009.0
20260507061031 56 174 20.0 34.0 0.00 0.00 0.00 76 1008.6
20260507060529 56 173 18.0 31.0 0.00 0.00 0.00 76 1009.0
20260507060025 56 193 19.0 26.0 0.00 0.00 0.00 77 1008.9
20260507055525 56 164 19.0 28.0 0.00 0.00 0.00 76 1008.8
20260507055022 56 173 18.0 27.0 0.00 0.00 0.00 76 1008.9
20260507054518 56 173 18.0 27.0 0.00 0.00 0.00 76 1009.2
20260507054015 56 179 24.0 29.0 0.00 0.00 0.00 77 1009.3
20260507053513 56 185 17.0 31.0 0.00 0.00 0.00 76 1009.3
20260507053012 56 178 22.0 30.0 0.00 0.00 0.00 77 1009.3
20260507052509 55 172 19.0 26.0 0.00 0.00 0.00 77 1009.4
20260507052005 55 171 22.0 26.0 0.00 0.00 0.00 78 1009.2
20260507051503 55 167 13.0 23.0 0.00 0.00 0.00 77 1009.3
20260507051000 55 172 15.0 25.0 0.00 0.00 0.00 77 1009.5
20260507050456 55 170 21.0 24.0 0.00 0.00 0.00 77 1010.3
20260507045953 55 179 24.0 24.0 0.00 0.00 0.00 77 1010.2
20260507045449 55 188 17.0 28.0 0.00 0.00 0.00 78 1010.2
20260507044947 55 192 20.0 23.0 0.00 0.00 0.00 78 1010.5
20260507044443 55 191 15.0 22.0 0.00 0.00 0.00 78 1010.6
20260507043940 55 180 15.0 28.0 0.00 0.00 0.00 77 1010.4
20260507043436 56 173 20.0 25.0 0.00 0.00 0.00 76 1010.7
20260507042932 56 194 18.0 29.0 0.00 0.00 0.00 77 1010.5
20260507042429 56 180 23.0 26.0 0.00 0.00 0.00 77 1010.6
20260507041925 56 156 21.0 26.0 0.00 0.00 0.00 76 1010.8
20260507041422 56 186 14.0 25.0 0.00 0.00 0.00 77 1010.8
20260507040919 56 190 21.0 31.0 0.00 0.00 0.00 77 1010.9
20260507040415 56 172 21.0 28.0 0.00 0.00 0.00 77 1010.5
20260507035911 56 164 15.0 26.0 0.00 0.00 0.00 77 1010.7
20260507035407 57 173 18.0 28.0 0.00 0.00 0.00 77 1010.4
20260507034904 57 170 20.0 26.0 0.00 0.00 0.00 77 1010.9
20260507034401 57 174 22.0 26.0 0.00 0.00 0.00 78 1010.9
20260507033859 57 173 15.0 24.0 0.00 0.00 0.00 78 1011.1
20260507033357 57 166 17.0 28.0 0.00 0.00 0.00 78 1011.0
20260507032854 57 172 17.0 28.0 0.00 0.00 0.00 78 1011.1
20260507032350 57 183 19.0 26.0 0.00 0.00 0.00 78 1011.3
20260507031846 57 171 19.0 27.0 0.00 0.00 0.00 78 1011.5
20260507031343 57 182 20.0 25.0 0.00 0.00 0.00 78 1011.8
20260507030840 57 198 20.0 31.0 0.00 0.00 0.00 77 1011.8
20260507030338 58 188 19.0 28.0 0.00 0.00 0.00 78 1012.1
20260507025834 58 180 18.0 28.0 0.00 0.00 0.00 77 1012.1
20260507025332 58 192 24.0 28.0 0.00 0.00 0.00 77 1011.9
20260507024829 58 190 23.0 30.0 0.00 0.00 0.00 77 1012.2
20260507024326 58 181 17.0 28.0 0.00 0.00 0.00 77 1012.2
20260507023822 58 197 23.0 27.0 0.00 0.00 0.00 77 1012.3
20260507023319 58 191 20.0 24.0 0.00 0.00 0.00 77 1012.3
20260507022817 59 198 19.0 26.0 0.00 0.00 0.00 76 1012.6
20260507022313 59 187 19.0 26.0 0.00 0.00 0.00 76 1012.5
20260507021809 59 195 20.0 30.0 0.00 0.00 0.00 76 1012.6
20260507021305 59 194 19.0 28.0 0.00 0.00 0.00 76 1012.6
20260507020803 59 177 20.0 27.0 0.00 0.00 0.00 76 1012.7
20260507020259 59 190 13.0 26.0 0.00 0.00 0.00 77 1013.3
20260507015756 59 196 17.0 23.0 0.00 0.00 0.00 77 1013.1
20260507015254 58 190 15.0 22.0 0.00 0.00 0.00 78 1013.1
20260507014751 58 189 13.0 20.0 0.00 0.00 0.00 79 1013.4
20260507014247 58 201 16.0 22.0 0.00 0.00 0.00 78 1013.3
20260507013743 58 185 19.0 24.0 0.00 0.00 0.00 78 1013.4
20260507013241 59 198 20.0 24.0 0.00 0.00 0.00 77 1013.5
20260507012738 59 195 17.0 22.0 0.00 0.00 0.00 77 1013.7
20260507012233 59 201 17.0 26.0 0.00 0.00 0.00 77 1013.6
20260507011732 59 197 17.0 23.0 0.00 0.00 0.00 77 1013.6
20260507011228 59 203 17.0 26.0 0.00 0.00 0.00 77 1013.8
20260507010727 59 194 22.0 24.0 0.00 0.00 0.00 77 1013.5
20260507010223 59 190 11.0 22.0 0.00 0.00 0.00 77 1013.5
20260507005721 59 197 23.0 25.0 0.00 0.00 0.00 76 1013.4
20260507005217 60 201 24.0 30.0 0.00 0.00 0.00 76 1013.5
20260507004714 60 218 19.0 28.0 0.00 0.00 0.00 76 1013.5
20260507004212 60 195 19.0 26.0 0.00 0.00 0.00 76 1013.4
20260507003708 60 196 18.0 24.0 0.00 0.00 0.00 75 1013.5
20260507003203 60 208 21.0 28.0 0.00 0.00 0.00 75 1013.7
20260507002659 60 194 16.0 26.0 0.00 0.00 0.00 75 1013.5
20260507002155 60 215 14.0 27.0 0.00 0.00 0.00 75 1013.3
20260507001652 61 176 25.0 30.0 0.00 0.00 0.00 74 1013.5
20260507001150 61 192 14.0 28.0 0.00 0.00 0.00 74 1013.1
20260507000646 61 201 20.0 26.0 0.00 0.00 0.00 74 1013.2
20260507000141 61 199 23.0 31.0 0.00 0.00 0.00 73 1013.0
20260506235639 61 192 24.0 30.0 0.00 0.00 0.00 73 1012.7
20260506235139 61 203 19.0 32.0 0.00 0.00 0.00 72 1012.7
20260506234637 61 182 22.0 29.0 0.00 0.00 0.00 73 1012.9
20260506234134 61 197 17.0 30.0 0.00 0.00 0.00 72 1013.0
20260506233631 61 202 27.0 29.0 0.00 0.00 0.00 72 1013.1
20260506233128 61 204 23.0 30.0 0.00 0.00 0.00 71 1012.9
20260506232624 61 199 28.0 30.0 0.00 0.00 0.00 71 1012.9
20260506232119 61 203 19.0 26.0 0.00 0.00 0.00 71 1012.9
20260506231617 62 197 22.0 28.0 0.00 0.00 0.00 71 1013.0
20260506231115 62 201 16.0 29.0 0.00 0.00 0.00 70 1012.9
20260506230611 62 210 19.0 25.0 0.00 0.00 0.00 70 1012.8
20260506230109 62 195 24.0 35.0 0.00 0.00 0.00 69 1012.8
20260506225605 62 199 20.0 26.0 0.00 0.00 0.00 69 1012.9
20260506225101 62 199 25.0 31.0 0.00 0.00 0.00 68 1013.0
20260506224558 62 194 23.0 32.0 0.00 0.00 0.00 68 1012.8
20260506224055 62 202 20.0 26.0 0.00 0.00 0.00 68 1012.7
20260506223551 62 199 18.0 27.0 0.00 0.00 0.00 67 1012.7
20260506223047 63 195 21.0 31.0 0.00 0.00 0.00 67 1012.5
20260506222544 63 205 20.0 27.0 0.00 0.00 0.00 66 1012.6
20260506222040 63 188 23.0 32.0 0.00 0.00 0.00 65 1012.8
20260506221538 63 197 18.0 28.0 0.00 0.00 0.00 65 1012.8
20260506221036 64 207 18.0 31.0 0.00 0.00 0.00 64 1012.7
20260506220532 64 196 20.0 28.0 0.00 0.00 0.00 64 1012.5
20260506220027 64 193 20.0 28.0 0.00 0.00 0.00 62 1012.7
20260506215525 65 209 30.0 36.0 0.00 0.00 0.00 61 1012.5
20260506215020 65 202 23.0 31.0 0.00 0.00 0.00 61 1012.5
20260506214518 65 200 13.0 38.0 0.00 0.00 0.00 60 1012.3
20260506214015 65 202 19.0 29.0 0.00 0.00 0.00 60 1012.5
20260506213513 65 201 21.0 30.0 0.00 0.00 0.00 59 1012.5
20260506213009 65 196 17.0 24.0 0.00 0.00 0.00 60 1012.2
20260506212506 65 204 19.0 31.0 0.00 0.00 0.00 60 1012.3
20260506212001 66 201 18.0 32.0 0.00 0.00 0.00 59 1012.2
20260506211457 66 215 20.0 31.0 0.00 0.00 0.00 58 1012.3
20260506210954 66 203 16.0 28.0 0.00 0.00 0.00 59 1012.3
20260506210450 66 202 17.0 24.0 0.00 0.00 0.00 59 1012.5
20260506205948 66 209 15.0 28.0 0.00 0.00 0.00 59 1012.5
20260506205444 66 204 16.0 29.0 0.00 0.00 0.00 59 1012.4
20260506204940 66 203 19.0 25.0 0.00 0.00 0.00 59 1012.3
20260506204438 66 219 19.0 29.0 0.00 0.00 0.00 59 1012.4
20260506203935 66 199 24.0 30.0 0.00 0.00 0.00 58 1012.2
20260506203432 66 202 19.0 26.0 0.00 0.00 0.00 58 1012.3
20260506202929 66 203 20.0 27.0 0.00 0.00 0.00 57 1012.3
20260506202426 66 208 11.0 25.0 0.00 0.00 0.00 57 1012.1
20260506201922 66 207 18.0 32.0 0.00 0.00 0.00 57 1012.1
20260506201420 66 194 25.0 27.0 0.00 0.00 0.00 58 1011.9
20260506200917 66 198 21.0 28.0 0.00 0.00 0.00 57 1012.0
20260506200413 66 208 16.0 22.0 0.00 0.00 0.00 58 1012.2
20260506195909 66 201 23.0 30.0 0.00 0.00 0.00 57 1012.3
20260506195407 66 193 15.0 25.0 0.00 0.00 0.00 60 1012.3
20260506194903 66 199 16.0 26.0 0.00 0.00 0.00 60 1012.4
20260506194400 66 211 16.0 25.0 0.00 0.00 0.00 60 1012.3
20260506193857 66 198 19.0 30.0 0.00 0.00 0.00 61 1012.2
20260506193354 66 199 21.0 26.0 0.00 0.00 0.00 60 1012.5
20260506192850 66 202 16.0 21.0 0.00 0.00 0.00 62 1012.6
20260506192347 66 198 16.0 32.0 0.00 0.00 0.00 61 1012.6
20260506191844 66 206 19.0 25.0 0.00 0.00 0.00 61 1012.8
20260506191341 66 209 21.0 26.0 0.00 0.00 0.00 60 1012.8
20260506190838 67 203 19.0 31.0 0.00 0.00 0.00 60 1012.8
20260506190334 67 202 19.0 25.0 0.00 0.00 0.00 60 1012.6
20260506185831 67 204 18.0 25.0 0.00 0.00 0.00 61 1012.6